Showing default

COSMOS 2253, 22688

Orbit data source: Space-Track

COSMOS 2253, 22688 is a payload satellite owned by VKS (CIS) in LEO that was launched on Thu, 24 Jun 1993 UTC via a TSIKLON-3 launch vehicle from the Plesetsk Missile And Space Complex (PKMTR). Payload-class satellites include a variety of spacecraft equipped with specific instruments for various scientific and technological missions. These include communications satellites like Starlink; space stations such as the ISS; scientific satellites like the Hubble; Earth observation satellites from companies like Planet Labs, Umbra, and HawkEye 360; GPS; miniature CubeSats for education and research; and military/defense satellites.

Loading next visibility...
Identifier
22688, 1993-038B
Orbit
LEO
Country
Flag of CISCIS
Related business
Manufacturer
NPO PM
Mission
Defense Communications
Bus & Motor
STRELA-3, Unknown motor
Mass
225 kg wet, 225 kg dry
Launch date (UTC)
1993-06-24 (33 years ago)
Launch vehicle
TSIKLON-3
Launch site
Plesetsk Missile And Space Complex (PKMTR)
Object type
Payload
Rocket body
Debris
Shape & HBR
Cyl, 0.8 m
Radar Cross Section
1.257 m², Large (>1 m²)

Expand to show TLE details & history
Last TLE update: 2 days ago

TLE from 2 days ago
0 COSMOS 2253
1 22688U 93038B   26171.46036948  .00000026  00000-0  85741-4 0  9993
2 22688  82.5868 255.2524 0011516   7.3838 352.7420 12.61601599518910
Epoch: 2026-06-20T11:02Z
TLE epoch observation values (Epoch: 2026-06-20T11:02:55.923Z)
Latitude
-0.00002°
Longitude
-179.15529°
Altitude
1,410.164 km
Speed
7.159 km/s
True Right ascension
17h 01m 00s
True Declination
0° 00' 00"
Sunlit
Object was in full shadow at epoch
Visualization orbit readout
Latitude
Unknown
Longitude
Unknown
Altitude
Unknown
Speed
Unknown
Apparent Right ascension
Unknown
Apparent Declination
Unknown
Sunlit
N/A
Visualization observer readout
Local Sidereal Time
00:49:55
Azimuth
Unknown
Elevation
Unknown
Doppler factor
Unknown
Orbital elements
Apogee altitude
1,422.635 km
Perigee altitude
1,404.689 km
Semi-major axis
7,791.799 km
Eccentricity
0.00115
Inclination
82.5868°
RAAN
255.2524°
Arg. of periapsis
7.3838°
True anomaly
352.7253°
Mean anomaly
352.742°
Eccentric anomaly
352.73365°
Mean motion
3.15563 °/min
Orbital period
114.08 mins
BSTAR
0.000085741
Loading maneuver chart data...
Computing Atmospheric mass density...
Loading historical data...
Loading historical data...
Loading historical data...
Loading historical data...
Loading historical data...
Loading historical data...
Loading historical data...

Documentation

Showing up to 5 results
|